SKYSAT-C1 (41601 NORAD) Tracking and Keplerian Element Data

This shows tracking and keplerian element data for the satellite.

Feedback or suggestion? Click here.




ElementValue
Catalog41601
NameSKYSAT-C1
Epoch Orbit53032
Epoch Day353.57624455
Epoch Year2025
RAAN30.2048
Inclination96.9813
Eccentricity0.000158
Argument of Perigee351.0695
Mean Anonmoly9.052
Mean Motion15.32708118
Decay Rate6.827E-05
L11 41601U 16040C 25353.57624455 .00006827 00000+0 21842-3 0 9991
L22 41601 96.9813 30.2048 0001580 351.0695 9.0520 15.32708118530325



Live tracking and technical data element details for SKYSAT-C1 (NORAD 41601). SKYSAT-C1 can be tracked NOW for your location showing map with azimuth and elevation plus other details from your city location.







IsCatalogInMostPopularTable: catalog: 41601, numindb: 431
Update: records affected: 1



GetName: 41601 SKYSAT-C1

Hit Count: updated at: Tue, 20 Jan 2026 18:41:37 GMT